OBJECT AP, 57203

Orbit data source: Space-Track

You're viewing an Uncataloged Satellite

Recently launched and/or uncataloged satellites may have evolving metadata. Metadata may include but not limited to: Owner, Maufacturer, Bus, Motor, and Mission.

OBJECT AP, 57203 is a satellite in SSO that was launched on Tue, 27 Jun 2023 UTC via a SOYUZ-2-1B launch vehicle from the Vostochny Cosmodrome (VOSTO). Unknown objects in Earth's orbit typically refer to objects detected orbiting the Earth but have not yet been identified or cataloged. These objects could be anything from previously untracked satellites, spent rocket stages, debris from satellite collisions, or even natural meteoroids temporarily captured by Earth's gravity.

Loading next visibility...
Identifier
57203, 2023-091AP
Orbit
SSO
Country
Flag of TBDTBD
Related business
Flag of RUUniversity of Tyumen (RU)
Manufacturer
Sputniks
Mission
Operational Amateur Imaging
Bus & Motor
CUBESAT 3U, Unknown motor
Mass
4 kg wet, 4 kg dry
Launch date (UTC)
2023-06-27 (3 years ago)
Launch vehicle
SOYUZ-2-1B
Launch site
Vostochny Cosmodrome (VOSTO)
Object type
Unknown
Shape & HBR
Box, 0.2 m
Radar Cross Section
0.035 m², Medium (>0.1 m² and < 1m²)

Expand to show TLE details & history
Last TLE update: 13 hours ago

TLE from 13 hours ago
0 OBJECT AP
1 57203U 23091AP  26206.58485073  .00012707  00000-0  40184-3 0  9995
2 57203  97.5071 274.3567 0006019 306.5408  53.5279 15.32911493170427
Epoch: 2026-07-25T14:02Z
TLE epoch observation values (Epoch: 2026-07-25T14:02:11.103Z)
Latitude
-0.00002°
Longitude
120.51541°
Altitude
467.788 km
Speed
7.634 km/s
True Right ascension
18h 17m 25s
True Declination
0° 00' 00"
Sunlit
Object was in full shadow at epoch
Visualization orbit readout
Latitude
Unknown
Longitude
Unknown
Altitude
Unknown
Speed
Unknown
Apparent Right ascension
Unknown
Apparent Declination
Unknown
Sunlit
N/A
Visualization observer readout
Local Sidereal Time
16:19:27
Azimuth
Unknown
Elevation
Unknown
Doppler factor
Unknown
Orbital elements
Apogee altitude
468.202 km
Perigee altitude
459.966 km
Semi-major axis
6,842.221 km
Eccentricity
0.0006
Inclination
97.5071°
RAAN
274.3567°
Arg. of periapsis
306.5408°
True anomaly
53.58339°
Mean anomaly
53.5279°
Eccentric anomaly
53.55564°
Mean motion
3.83484 °/min
Orbital period
93.88 mins
BSTAR
0.00040184
Loading maneuver chart data...
Computing Atmospheric mass density...
Loading historical data...
Loading historical data...
Loading historical data...
Loading historical data...
Loading historical data...
Loading historical data...
Loading historical data...

Documentation

Showing up to 5 results
|